Regional Weather Roundup
Issued by NWS Jackson, KY

Home | Current Version | Previous Version | Text Only | Print | Product List | Glossary On
Versions: 1 2 3 4 5 6 7 8 9 10 11 12 13 14 15 16 17 18 19 20 21 22 23 24 25 26 27 28 29 30 31 32 33 34 35 36 37 38 39 40 41 42 43 44 45 46 47 48 49 50
000
ASUS43 KJKL 061410
RWRJKL

EAST KENTUCKY HOURLY WEATHER ROUNDUP
NATIONAL WEATHER SERVICE JACKSON KY
1000 AM EDT MON JUL 06 2015

NOTE: "FAIR" INDICATES FEW OR NO CLOUDS BELOW 12,000 FEET WITH
NO SIGNIFICANT WEATHER AND/OR OBSTRUCTIONS TO VISIBILITY.

* THESE REPORTS ARE NOT UNDER NWS QUALITY CONTROL AND MAY NOT
  REPORT WEATHER SUCH AS PRECIPITATION AND FOG.

KYZ079-080-083-085-087-088-110-112-115-119-120-061500
...EASTERN KENTUCKY...

CITY           SKY/WX    TMP DP  RH WIND       PRES   REMARKS
JACKSON        CLOUDY    68  66  93 CALM      30.16R FOG
LONDON         CLOUDY    71  65  81 CALM      30.16S
SOMERSET*      CLOUDY    68  68 100 S5        30.16F FOG
MONTICELLO*    MOSUNNY   74  73  96 SW7       30.18S FOG
MIDDLESBORO*   CLOUDY    67  67  98 E3        30.18R
HARLAN APT*      N/A     68  68 100 CALM      30.18S
HAZARD APT*    CLOUDY    70  70 100 CALM      30.16R
BLACK MTN*       N/A     61  61 100 S1          N/A
PIKEVILLE APT* LGT RAIN  66  66 100 CALM      30.16R VSB 1/2
BIG SANDY*     CLOUDY    68  67  98 SW5       30.15R FOG
MOREHEAD APT*  MOSUNNY   75  66  73 VRB5      30.15S
$$

KYZ035-036-041-042-044-050-067-078-099-061500
...CENTRAL KENTUCKY...

CITY           SKY/WX    TMP DP  RH WIND       PRES   REMARKS
MT STERLING*   MOSUNNY   73  68  83 W3        30.15S
FLEMING/MASON* SUNNY     73  64  73 NW10      30.14R
DANVILLE*      SUNNY     72  68  88 CALM      30.16S
RICHMOND*      MOSUNNY   73  68  83 CALM      30.13F
LEXINGTON      SUNNY     74  67  78 W7        30.13F
FRANKFORT      SUNNY     74  67  78 VRB3      30.12S
$$

KYZ091>093-OHZ055-061-077-WVZ005-015-034-035-042-061500
...SOUTHERN OHIO/WEST VIRGINIA...

CITY           SKY/WX    TMP DP  RH WIND       PRES   REMARKS
COVINGTON      MOSUNNY   73  65  75 SW5       30.12R
COLUMBUS       MOSUNNY   72  63  73 CALM      30.09S
DAYTON         SUNNY     76  65  68 CALM      30.11F
WILMINGTON     SUNNY     74  63  68 W7        30.12R
HUNTINGTON     PTSUNNY   72  68  87 W7        30.10R
CHARLESTON     LGT RAIN  69  66  90 SW5       30.10S
PINEVILLE*     RAIN      68  68  99 MISG      30.20S
BECKLEY        CLOUDY    67  64  90 SW7       30.17S
BLUEFIELD      HVY RAIN  67  63  87 W6        30.20R FOG
$$

VAZ002-007-008-TNZ017-027-036-066-071-061500
...SOUTHWEST VIRGINIA/EAST TENNESSEE...

CITY           SKY/WX    TMP DP  RH WIND       PRES   REMARKS
WISE*          MOSUNNY   70  64  83 SW8       30.22S
JONESVILLE*      N/A    N/A N/A N/A MISG        N/A
ABINGDON*      PTSUNNY   72  67  84 W9        30.20S
BRISTOL        PTSUNNY   73  67  81 VRB5      30.18F
KNOXVILLE      CLOUDY    72  68  87 SW7       30.16S
OAK RIDGE      MOSUNNY   76  69  79 VRB3      30.17S
CROSSVILLE     PTSUNNY   76  68  76 W8        30.21R
NASHVILLE      PTSUNNY   76  72  87 CALM      30.15S
$$

...KEY TO REMARKS...
VSB - VISIBILITY IN MILES
WCI - WIND CHILL INDEX
HX  - HEAT INDEX

$$



USA.gov is the U.S. government's official web portal to all federal, state and local government web resources and services.